Location: *
(37.9500°N, 27.3666°E)
Time: 10:31:05
(UTC+00:00)

BlueWalker 3 - Visible Passes

Search period start: 08 December 2022 00:00
Search period end: 18 December 2022 00:00
Orbit: 501 x 518 km, 53.2° (Epoch: 07 December)

Date Brightness Start Highest point End Pass type
(mag) Time Alt. Az. Time Alt. Az. Time Alt. Az.
08 Dec 3.6 15:53:25 10° NNW 15:56:09 18° NNE 15:56:59 17° NE visible
08 Dec 4.8 17:31:21 10° NW 17:31:50 13° NW 17:31:50 13° NW visible
09 Dec 3.5 15:34:56 10° NNW 15:37:47 19° NNE 15:39:52 13° ENE visible
09 Dec 3.8 17:12:56 10° NW 17:14:45 26° NW 17:14:45 26° NW visible
10 Dec 2.3 16:54:32 10° NW 16:57:54 61° W 16:57:54 61° W visible
11 Dec 2.2 16:36:07 10° NW 16:39:59 66° SW 16:41:24 36° SSE visible
12 Dec 2.4 16:17:41 10° NW 16:21:33 61° SW 16:25:21 10° SE visible
13 Dec 2.6 15:59:17 10° NW 16:03:06 56° SW 16:06:53 10° SSE visible
14 Dec 2.9 15:40:52 10° WNW 15:44:39 51° SW 15:48:25 10° SSE visible
15 Dec 3.1 15:22:26 10° WNW 15:26:12 47° SW 15:29:55 10° SSE visible
